Location: Aula-Vintri
(58.3875°N, 22.4322°E)
Time: 20:10:29
(UTC+00:00)

STARLINK-52 - Pass Details

Date: 13 October 2019
Orbit: 443 x 445 km, 53.0° (Epoch: 18 November)

Event Time Altitude Azimuth Distance (km) Brightness Sun altitude
Rises 17:25:18 0° 252° (WSW) 2,438 8.1 -15.7°
Reaches altitude 10° 17:27:32 10° 243° (WSW) 1,568 6.7 -15.9°
Maximum altitude 17:30:45 34° 178° (S) 756 4.2 -16.4°
Enters shadow 17:31:33 30° 148° (SSE) 830 4.1 -16.5°
